Location: Marcé
(47.5801°N, 0.3280°W)
Time: 08:28:01
(UTC+01:00)

BlueWalker 3 - Pass Details

Date: 07 December 2022
Orbit: 499 x 517 km, 53.2° (Epoch: 29 January)

Event Time Altitude Azimuth Distance (km) Brightness Sun altitude
Rises 18:39:30 0° 296° (WNW) 2,633 6.3 -14.4°
Reaches altitude 10° 18:41:45 10° 301° (WNW) 1,741 5.3 -14.7°
Maximum altitude 18:45:38 56° 20° (NNE) 615 2.1 -15.4°
Enters shadow 18:47:16 31° 85° (E) 922 2.7 -15.6°
